NSZ2RT ESSA-EKCH

Flight info

Callsign NSZ2RT
Flight time 0h 55m
Altitude 36000
Route PETEV N872 ELPAX DCT TOKSI N872 ERNOV
Aircraft B738/M-SDE2E3GHIJ1LRWXY/LB1

Departure

Time 2026-05-04 17:34
Airport Stockholm-Arlanda Airport (ESSA)

Arrival

Time 2026-05-04 18:29
Airport Copenhagen Kastrup Airport (EKCH)
Time Latitude Longitude Altitude Speed Heading
2026-05-04 17:00 59.65281 17.93191 146 ft 0 kts 250°
2026-05-04 17:20 59.65284 17.93214 146 ft 2 kts 251°
2026-05-04 17:21 59.65295 17.93269 146 ft 2 kts 250°
2026-05-04 17:21 59.65296 17.93328 146 ft 2 kts 289°
2026-05-04 17:22 59.65289 17.93354 146 ft 2 kts 309°
2026-05-04 17:22 59.65285 17.93364 146 ft 1 kts 318°
2026-05-04 17:23 59.65282 17.93369 146 ft 0 kts 315°
2026-05-04 17:24 59.65391 17.93279 146 ft 11 kts 345°
2026-05-04 17:25 59.65460 17.93226 146 ft 10 kts 328°
2026-05-04 17:25 59.65489 17.92996 146 ft 10 kts 255°
2026-05-04 17:26 59.65432 17.92709 146 ft 8 kts 242°
2026-05-04 17:26 59.65459 17.92603 146 ft 0 kts 330°
2026-05-04 17:27 59.65523 17.92540 146 ft 13 kts 339°
2026-05-04 17:27 59.65780 17.92430 146 ft 19 kts
2026-05-04 17:28 59.66066 17.92532 146 ft 22 kts 10°
2026-05-04 17:29 59.66454 17.92656 146 ft 10 kts 353°
2026-05-04 17:29 59.66518 17.92619 146 ft 0 kts 340°
2026-05-04 17:31 59.66547 17.92599 146 ft 5 kts 341°
2026-05-04 17:32 59.66619 17.92483 146 ft 10 kts 276°
2026-05-04 17:33 59.66074 17.92175 146 ft 98 kts 190°
2026-05-04 17:33 59.65192 17.91865 152 ft 154 kts 189°
2026-05-04 17:34 59.62045 17.90677 2050 ft 156 kts 202°
2026-05-04 17:34 59.61188 17.89586 2593 ft 154 kts 240°
2026-05-04 17:35 59.59374 17.83510 4053 ft 194 kts 238°
2026-05-04 17:35 59.57890 17.78579 5130 ft 223 kts 245°
2026-05-04 17:35 59.57183 17.75772 5670 ft 237 kts 246°
2026-05-04 17:36 59.56311 17.72881 6309 ft 249 kts 236°
2026-05-04 17:36 59.55139 17.70314 7037 ft 258 kts 229°
2026-05-04 17:36 59.53856 17.67854 7886 ft 259 kts 229°
2026-05-04 17:36 59.52570 17.65371 8672 ft 262 kts 229°
2026-05-04 17:37 59.51297 17.62833 9473 ft 264 kts 230°
2026-05-04 17:37 59.50026 17.60252 10161 ft 270 kts 231°
2026-05-04 17:37 59.48693 17.57522 10682 ft 282 kts 231°
2026-05-04 17:37 59.47317 17.54717 11462 ft 287 kts 231°
2026-05-04 17:38 59.45919 17.51877 12328 ft 290 kts 231°
2026-05-04 17:38 59.44525 17.49050 13246 ft 290 kts 231°
2026-05-04 17:38 59.43111 17.46309 14089 ft 292 kts 228°
2026-05-04 17:38 59.41578 17.43664 14886 ft 297 kts 226°
2026-05-04 17:39 59.38391 17.38436 16458 ft 302 kts 226°
2026-05-04 17:39 59.36782 17.35769 17219 ft 304 kts 227°
2026-05-04 17:39 59.35161 17.33058 17957 ft 307 kts 226°
2026-05-04 17:40 59.33538 17.30332 18706 ft 308 kts 227°
2026-05-04 17:40 59.31903 17.27585 19392 ft 312 kts 227°
2026-05-04 17:40 59.30251 17.24808 20039 ft 316 kts 227°
2026-05-04 17:40 59.28577 17.22005 20686 ft 319 kts 227°
2026-05-04 17:41 59.26896 17.19195 21389 ft 320 kts 227°
2026-05-04 17:41 59.25215 17.16390 22005 ft 322 kts 227°
2026-05-04 17:41 59.23507 17.13543 22629 ft 324 kts 227°
2026-05-04 17:41 59.21791 17.10686 23147 ft 329 kts 227°
2026-05-04 17:42 59.20037 17.07764 23678 ft 333 kts 227°
2026-05-04 17:42 59.18280 17.04849 24280 ft 334 kts 227°
2026-05-04 17:42 59.16496 17.01887 24666 ft 341 kts 227°
2026-05-04 17:42 59.14689 16.98895 25214 ft 343 kts 227°
2026-05-04 17:43 59.12862 16.95875 25704 ft 346 kts 227°
2026-05-04 17:43 59.11034 16.92861 26182 ft 349 kts 227°
2026-05-04 17:43 59.09173 16.89793 26644 ft 353 kts 227°
2026-05-04 17:43 59.07274 16.86668 27091 ft 356 kts 227°
2026-05-04 17:44 59.05382 16.83555 27502 ft 360 kts 227°
2026-05-04 17:44 59.03472 16.80421 27695 ft 358 kts 227°
2026-05-04 17:44 59.01604 16.77373 27704 ft 352 kts 227°
2026-05-04 17:44 58.99717 16.74294 27763 ft 359 kts 227°
2026-05-04 17:45 58.97803 16.71160 28122 ft 363 kts 227°
2026-05-04 17:45 58.95855 16.67975 28504 ft 367 kts 227°
2026-05-04 17:45 58.93903 16.64791 28967 ft 369 kts 227°
2026-05-04 17:45 58.91943 16.61606 29439 ft 369 kts 227°
2026-05-04 17:46 58.89984 16.58434 30018 ft 367 kts 227°
2026-05-04 17:46 58.88000 16.55226 30521 ft 366 kts 227°
2026-05-04 17:46 58.86064 16.52101 31015 ft 365 kts 227°
2026-05-04 17:46 58.84117 16.48954 31400 ft 366 kts 227°
2026-05-04 17:47 58.82156 16.45788 31838 ft 365 kts 227°
2026-05-04 17:47 58.80229 16.42683 32241 ft 365 kts 227°
2026-05-04 17:47 58.78270 16.39532 32658 ft 364 kts 227°
2026-05-04 17:47 58.76337 16.36430 33115 ft 361 kts 227°
2026-05-04 17:48 58.74398 16.33322 33481 ft 362 kts 227°
2026-05-04 17:48 58.72438 16.30183 33840 ft 362 kts 227°
2026-05-04 17:48 58.70502 16.27085 34183 ft 362 kts 227°
2026-05-04 17:48 58.68563 16.23990 34550 ft 360 kts 227°
2026-05-04 17:49 58.66628 16.20902 34759 ft 362 kts 227°
2026-05-04 17:49 58.64702 16.17833 35001 ft 361 kts 227°
2026-05-04 17:49 58.62751 16.14730 35219 ft 362 kts 227°
2026-05-04 17:49 58.60810 16.11648 35442 ft 362 kts 226°
2026-05-04 17:50 58.58878 16.08587 35667 ft 361 kts 226°
2026-05-04 17:50 58.56932 16.05505 35730 ft 364 kts 226°
2026-05-04 17:50 58.53010 15.99312 35744 ft 363 kts 226°
2026-05-04 17:51 58.51074 15.96269 35592 ft 359 kts 226°
2026-05-04 17:51 58.49160 15.93263 35724 ft 360 kts 226°
2026-05-04 17:51 58.45245 15.87108 35755 ft 365 kts 225°
2026-05-04 17:52 58.41329 15.80981 35746 ft 363 kts 226°
2026-05-04 17:52 58.37408 15.74861 35763 ft 369 kts 226°
2026-05-04 17:53 58.33370 15.68564 35755 ft 381 kts 225°
2026-05-04 17:53 58.29177 15.62050 35764 ft 392 kts 225°
2026-05-04 17:54 58.24924 15.55474 35760 ft 399 kts 225°
2026-05-04 17:54 58.20621 15.48859 35761 ft 397 kts 225°
2026-05-04 17:55 58.16282 15.42203 35770 ft 399 kts 225°
2026-05-04 17:55 58.11984 15.35626 35760 ft 400 kts 225°
2026-05-04 17:56 58.07633 15.28989 35773 ft 400 kts 224°
2026-05-04 17:56 58.03314 15.22420 35777 ft 400 kts 224°
2026-05-04 17:57 57.98988 15.15861 35788 ft 400 kts 224°
2026-05-04 17:57 57.94649 15.09305 35787 ft 400 kts 224°
2026-05-04 17:58 57.90307 15.02766 35787 ft 401 kts 224°
2026-05-04 17:58 57.85922 14.96181 35796 ft 402 kts 224°
2026-05-04 17:59 57.81540 14.89624 35793 ft 400 kts 224°
2026-05-04 18:00 57.75008 14.79887 35796 ft 402 kts 224°
2026-05-04 18:00 57.70659 14.73428 35802 ft 402 kts 224°
2026-05-04 18:01 57.66274 14.66938 35799 ft 400 kts 224°
2026-05-04 18:01 57.61921 14.60514 35810 ft 402 kts 224°
2026-05-04 18:02 57.55356 14.50865 35808 ft 402 kts 224°
2026-05-04 18:02 57.50957 14.44426 35819 ft 402 kts 224°
2026-05-04 18:03 57.46574 14.38033 35833 ft 401 kts 223°
2026-05-04 18:03 57.42159 14.31611 35836 ft 402 kts 223°
2026-05-04 18:04 57.37778 14.25257 35839 ft 402 kts 223°
2026-05-04 18:05 57.31177 14.15719 35846 ft 403 kts 223°
2026-05-04 18:05 57.26743 14.09340 35840 ft 403 kts 223°
2026-05-04 18:06 57.20098 13.99814 35528 ft 406 kts 222°
2026-05-04 18:06 57.17868 13.96628 35038 ft 408 kts 223°
2026-05-04 18:06 57.15644 13.93453 34441 ft 410 kts 222°
2026-05-04 18:07 57.13379 13.90200 33844 ft 410 kts 223°
2026-05-04 18:07 57.11172 13.87016 33285 ft 410 kts 222°
2026-05-04 18:07 57.08943 13.83842 33009 ft 401 kts 222°
2026-05-04 18:07 57.06747 13.80754 32551 ft 397 kts 222°
2026-05-04 18:08 57.04511 13.77605 31329 ft 412 kts 221°
2026-05-04 18:08 57.02243 13.74404 30029 ft 426 kts 221°
2026-05-04 18:08 56.99880 13.71065 29139 ft 427 kts 221°
2026-05-04 18:08 56.97550 13.67786 28737 ft 418 kts 221°
2026-05-04 18:09 56.93055 13.61475 28063 ft 399 kts 222°
2026-05-04 18:09 56.88636 13.55269 26405 ft 405 kts 221°
2026-05-04 18:10 56.86355 13.52220 26072 ft 394 kts 220°
2026-05-04 18:10 56.84081 13.49551 25828 ft 387 kts 215°
2026-05-04 18:10 56.81730 13.47245 25564 ft 379 kts 212°
2026-05-04 18:10 56.79400 13.45098 25304 ft 375 kts 212°
2026-05-04 18:11 56.77039 13.42886 25052 ft 390 kts 213°
2026-05-04 18:11 56.74609 13.40510 24792 ft 403 kts 214°
2026-05-04 18:11 56.72148 13.38017 24527 ft 403 kts 214°
2026-05-04 18:11 56.69694 13.35474 24262 ft 403 kts 215°
2026-05-04 18:12 56.67250 13.32904 23993 ft 406 kts 214°
2026-05-04 18:12 56.64777 13.30280 23730 ft 411 kts 214°
2026-05-04 18:12 56.62299 13.27642 23468 ft 413 kts 214°
2026-05-04 18:12 56.59815 13.24999 23211 ft 412 kts 214°
2026-05-04 18:13 56.57366 13.22398 22947 ft 411 kts 214°
2026-05-04 18:13 56.54910 13.19793 22689 ft 409 kts 214°
2026-05-04 18:13 56.49971 13.14566 22163 ft 405 kts 214°
2026-05-04 18:14 56.47574 13.12034 21912 ft 403 kts 214°
2026-05-04 18:14 56.45129 13.09457 21637 ft 400 kts 214°
2026-05-04 18:14 56.42776 13.06983 21377 ft 389 kts 215°
2026-05-04 18:15 56.38188 13.02177 20854 ft 368 kts 215°
2026-05-04 18:15 56.33839 12.97619 20044 ft 359 kts 215°
2026-05-04 18:15 56.31663 12.95338 19571 ft 357 kts 215°
2026-05-04 18:16 56.29540 12.93114 19110 ft 353 kts 215°
2026-05-04 18:16 56.27416 12.90894 18699 ft 347 kts 215°
2026-05-04 18:16 56.25367 12.88763 18542 ft 334 kts 216°
2026-05-04 18:17 56.21423 12.84661 17932 ft 319 kts 216°
2026-05-04 18:17 56.19529 12.82691 17627 ft 313 kts 216°
2026-05-04 18:17 56.15840 12.78860 16957 ft 304 kts 216°
2026-05-04 18:18 56.13994 12.76943 16462 ft 305 kts 216°
2026-05-04 18:18 56.12166 12.75067 15922 ft 308 kts 213°
2026-05-04 18:18 56.10108 12.73840 15367 ft 318 kts 194°
2026-05-04 18:18 56.07897 12.73543 14830 ft 316 kts 187°
2026-05-04 18:19 56.03672 12.72540 13648 ft 299 kts 202°
2026-05-04 18:19 56.01701 12.71403 13045 ft 293 kts 205°
2026-05-04 18:19 55.99794 12.70212 12445 ft 289 kts 205°
2026-05-04 18:20 55.97917 12.69011 11849 ft 286 kts 205°
2026-05-04 18:20 55.96060 12.67810 11247 ft 282 kts 205°
2026-05-04 18:20 55.94235 12.66624 10653 ft 280 kts 205°
2026-05-04 18:20 55.92402 12.65428 10046 ft 277 kts 205°
2026-05-04 18:21 55.90629 12.64267 9450 ft 274 kts 205°
2026-05-04 18:21 55.88854 12.63098 8845 ft 271 kts 205°
2026-05-04 18:21 55.87083 12.61930 8233 ft 269 kts 204°
2026-05-04 18:21 55.85245 12.61336 7619 ft 276 kts 181°
2026-05-04 18:22 55.83424 12.62242 7189 ft 276 kts 153°
2026-05-04 18:22 55.82029 12.64508 6809 ft 272 kts 125°
2026-05-04 18:22 55.81124 12.67417 6429 ft 265 kts 116°
2026-05-04 18:22 55.80356 12.70343 6053 ft 259 kts 115°
2026-05-04 18:23 55.79632 12.73254 5665 ft 255 kts 110°
2026-05-04 18:23 55.79166 12.76248 5282 ft 249 kts 102°
2026-05-04 18:23 55.78830 12.79210 4912 ft 244 kts 101°
2026-05-04 18:23 55.78510 12.82147 4528 ft 240 kts 100°
2026-05-04 18:24 55.77991 12.84957 4141 ft 237 kts 123°
2026-05-04 18:24 55.76848 12.86905 3801 ft 227 kts 157°
2026-05-04 18:24 55.75358 12.87435 3509 ft 210 kts 193°
2026-05-04 18:24 55.74106 12.86480 3248 ft 192 kts 230°
2026-05-04 18:25 55.73427 12.84587 3004 ft 179 kts 250°
2026-05-04 18:25 55.72760 12.82750 2816 ft 174 kts 232°
2026-05-04 18:25 55.71869 12.81283 2518 ft 178 kts 227°
2026-05-04 18:25 55.70947 12.79823 2261 ft 176 kts 227°
2026-05-04 18:26 55.70032 12.78385 2010 ft 176 kts 227°
2026-05-04 18:26 55.69111 12.76953 1768 ft 177 kts 226°
2026-05-04 18:26 55.68197 12.75534 1511 ft 169 kts 226°
2026-05-04 18:26 55.67345 12.74211 1303 ft 157 kts 226°
2026-05-04 18:27 55.66534 12.72947 1076 ft 152 kts 226°
2026-05-04 18:27 55.65778 12.71778 932 ft 138 kts 226°
2026-05-04 18:27 55.65072 12.70678 695 ft 132 kts 226°
2026-05-04 18:27 55.64402 12.69639 509 ft 125 kts 226°
2026-05-04 18:28 55.63745 12.68627 363 ft 126 kts 225°
2026-05-04 18:28 55.63083 12.67617 222 ft 125 kts 225°
2026-05-04 18:28 55.62416 12.66583 26 ft 128 kts 226°
2026-05-04 18:28 55.61879 12.65734 18 ft 74 kts 221°
2026-05-04 18:29 55.61626 12.65323 21 ft 30 kts 240°
2026-05-04 18:29 55.61617 12.65016 22 ft 20 kts 298°
2026-05-04 18:29 55.61697 12.64849 21 ft 14 kts 318°
2026-05-04 18:29 55.61774 12.64784 21 ft 12 kts
2026-05-04 18:30 55.61919 12.64849 21 ft 3 kts 33°
2026-05-04 18:30 55.61930 12.64862 21 ft 1 kts 33°
2026-05-04 18:30 55.61932 12.64864 21 ft 0 kts 33°
2026-05-04 18:31 55.61933 12.64864 21 ft 0 kts 33°
2026-05-04 18:31 55.61933 12.64865 21 ft 0 kts 33°
2026-05-04 18:33 55.61939 12.64871 21 ft 3 kts 33°
2026-05-04 18:33 55.61975 12.64912 21 ft 7 kts 33°
2026-05-04 18:33 55.62027 12.64936 21 ft 7 kts 339°
2026-05-04 18:33 55.62061 12.64866 21 ft 7 kts 304°
2026-05-04 18:34 55.62084 12.64805 21 ft 4 kts 303°
2026-05-04 18:34 55.62109 12.64737 21 ft 9 kts 303°
2026-05-04 18:34 55.62157 12.64606 21 ft 15 kts 304°
2026-05-04 18:34 55.62229 12.64411 21 ft 22 kts 303°
2026-05-04 18:35 55.62320 12.64169 21 ft 23 kts 303°
2026-05-04 18:35 55.62406 12.63932 22 ft 22 kts 303°
2026-05-04 18:35 55.62516 12.63777 22 ft 18 kts 345°
2026-05-04 18:35 55.62590 12.63771 22 ft 3 kts
2026-05-04 18:36 55.62593 12.63772 22 ft 0 kts 10°
2026-05-04 18:37 55.62598 12.63773 22 ft 3 kts 12°
2026-05-04 18:37 55.62639 12.63802 21 ft 9 kts 28°
2026-05-04 18:38 55.62706 12.63877 21 ft 11 kts 33°
2026-05-04 18:38 55.62771 12.63955 21 ft 11 kts 34°
2026-05-04 18:38 55.62823 12.64040 21 ft 9 kts 66°
2026-05-04 18:38 55.62845 12.64140 21 ft 5 kts 93°
2026-05-04 18:39 55.62829 12.64183 21 ft 4 kts 125°
2026-05-04 18:39 55.62816 12.64217 21 ft 0 kts 124°
2026-05-04 18:39 55.62815 12.64220 21 ft 0 kts 124°